Flag for Germany Weather past 2 weeks in Dormagen, North Rhine-Westphalia, Germany

Now
70 °F

Broken clouds.


Feels Like: 70 °F
Forecast: 59 / 78 °F
Wind: 6 mph from North

Location: Duesseldorf

Current Time: Jul 5, 2015 at 8:23:09 AM

Latest Report: Jul 5, 2015 at 7:50 AM


Visibility: N/A

Pressure: 30.07 "Hg

Humidity: 83%

Dew point: 64 °F

Location of DormagenLocation

Historic Weather in Dormagen — Graph

°F

Dormagen temperature yesterday

Maximum temperature yesterday: 97 °F (at 2:20 PM)
Minimum temperature yesterday: 72 °F (at 4:20 AM)
Average temperature yesterday: 85 °F

Past Weeks' High & Low Weather Summary

 TemperatureHumidityPressure
High99 °F (Jul 2, 3:20 PM)100% (Jun 22, 8:50 AM)30.24 "Hg (Jun 22, 8:50 AM)
Low50 °F (Jun 22, 10:20 PM)23% (Jul 1, 5:20 PM)29.71 "Hg (Jun 22, 5:50 PM)
Average69 °F64%30.07 "Hg
* Reported Jun 20 7:20 AM — Jul 5 7:20 AM, Dormagen, Weather by CustomWeather, © 2015

Note: Actual official high and low records may vary slightly from our data, if they occured in-between our weather recording intervals... More about our weather records

Advertising

Dormagen weather history for previous 24 hours

 ConditionsComfort  
Time TempWeatherWind HumidityBarometerVisibility
7:20 AM
Sun, Jul 5
68 °FBroken clouds.6 mph83%30.07 "HgN/A
6:50 AM68 °FBroken clouds.7 mph83%30.07 "HgN/A
6:20 AM68 °FSprinkles. Passing clouds.7 mph83%30.09 "HgN/A
5:20 AM70 °FClear.3 mph73%30.09 "Hg10 mi
4:50 AM70 °FClear.6 mph73%30.09 "Hg10 mi
4:20 AM70 °FClear.8 mph73%30.09 "Hg10 mi
3:50 AM72 °FClear.6 mph69%30.12 "Hg10 mi
3:20 AM72 °FClear.7 mph69%30.12 "Hg10 mi
2:50 AM72 °FClear.7 mph69%30.12 "Hg10 mi
2:20 AM73 °FClear.8 mph61%30.12 "Hg10 mi
1:50 AM75 °FClear.9 mph57%30.12 "Hg10 mi
1:20 AM77 °FClear.7 mph51%30.12 "Hg10 mi
12:50 AM79 °FClear.7 mph51%30.09 "Hg10 mi
12:20 AM79 °FClear.6 mph51%30.09 "Hg10 mi
11:50 PM
Sat, Jul 4
81 °FClear.6 mph48%30.09 "Hg10 mi
11:20 PM81 °FClear.8 mph51%30.09 "Hg10 mi
10:50 PM82 °FSunny.10 mph48%30.09 "Hg10 mi
10:20 PM84 °FSunny.9 mph48%30.07 "Hg10 mi
9:50 PM86 °FSunny.10 mph52%30.07 "Hg10 mi
9:20 PM88 °FSunny.9 mph46%30.07 "Hg10 mi
8:50 PM90 °FSunny.8 mph43%30.07 "Hg10 mi
8:20 PM93 °FSunny.3 mph39%30.07 "Hg10 mi
7:50 PM93 °FSunny.3 mph36%30.07 "Hg10 mi
7:20 PM93 °FSunny.7 mph36%30.07 "Hg10 mi
6:50 PM95 °FSunny.7 mph32%30.07 "Hg10 mi
6:20 PM95 °FSunny.7 mph34%30.07 "Hg10 mi
5:50 PM95 °FSunny.6 mph32%30.07 "Hg10 mi
5:20 PM95 °FSunny.8 mph30%30.07 "Hg10 mi
4:50 PM97 °FSunny.9 mph30%30.07 "Hg10 mi
4:20 PM97 °FSunny.10 mph30%30.07 "Hg10 mi
3:50 PM95 °FSunny.12 mph30%30.07 "Hg10 mi
3:20 PM97 °FSunny.13 mph27%30.07 "Hg10 mi
2:50 PM95 °FSunny.13 mph32%30.07 "Hg10 mi
2:20 PM97 °FSunny.13 mph27%30.07 "Hg10 mi
1:50 PM95 °FSunny.10 mph34%30.07 "Hg10 mi
1:20 PM95 °FSunny.8 mph39%30.07 "Hg10 mi
12:50 PM93 °FPassing clouds.8 mph44%30.07 "HgN/A
12:20 PM91 °FSunny.9 mph44%30.07 "Hg10 mi
11:50 AM91 °FSunny.10 mph41%30.07 "Hg10 mi
11:20 AM90 °FSunny.10 mph43%30.04 "Hg10 mi
10:50 AM90 °FSunny.13 mph46%30.04 "Hg10 mi
10:20 AM88 °FScattered clouds.12 mph46%30.04 "HgN/A
9:50 AM88 °FScattered clouds.14 mph52%30.04 "HgN/A
9:20 AM86 °FScattered clouds.14 mph52%30.04 "HgN/A
8:50 AM86 °FScattered clouds.13 mph52%30.04 "HgN/A
8:20 AM82 °FSunny.8 mph62%30.04 "Hg10 mi
Weather by CustomWeather, © 2015

See weather overviewHow to use our weather pages